sat.trackr.live / text

‹ back to catalog

STARLINK-4553

NORAD 53577 · 2022-101BC

PAYLOAD ACTIVE UNKNOWN

§ Identity

Operator
Country
US
Launch date
2022-08-19
Launch site
AFETR
Launch vehicle
Mass (kg)
RCS (m²)

Purposes: comms

External: N2YO · Heavens-Above · Gunter

§ Orbital elements

Epoch: 2026-09-19T12:19:28.765632Z

Period
93.85 min
Inclination
53.1596°
Eccentricity
0.0001237
Mean motion
15.34392486 rev/d
Perigee alt
461.9 km
Apogee alt
463.6 km
Semi-major
6,840.9 km
B*
2.6983e-5
RAAN
248.0845°
Arg perigee
82.4729°
Mean anomaly
277.6414°
Rev number
22,674

§ Raw data

STARLINK-45531 53577U 22101BC  26262.51352738  .00000535  00000+0  26983-4 0  99992 53577  53.1596 248.0845 0001237  82.4729 277.6414 15.34392486226741

JSON: /api/v1/satellites/53577 · /tle

For live sub-satellite position, see the globe view (requires WebGL).

§ Visibility from observer

Set your observer location to see the next 7 days of passes ≥ 10°. The values pass through the URL so the page stays shareable.

No JS? Fill the form by hand. The geolocation button needs JavaScript.